Wind_Speed
6 6 5 5 5 5 5 5 5 5 5 5 4 5 5 6 5 5 5 5 5 6 6 6 7 6 7 8 7 7 8 8 9 9 9 9 9 9 9 9 9 9 10
6 7 6 6 6 6 5 5 5 5 5 5 5 5 5 5 6 5 5 5 6 6 6 6 6 6 6 6 6 6 7 8 9 9 9 9 9 10 10 10 10 10 10
6 7 6 6 5 5 5 5 5 5 5 6 5 6 6 6 5 5 6 6 6 6 6 6 6 6 5 5 5 5 6 7 8 9 9 9 10 10 9 10 10 11 11
7 7 6 6 5 5 5 5 5 5 5 6 6 6 7 6 6 6 6 7 6 7 7 7 6 5 6 6 6 6 6 7 7 9 9 9 9 10 10 10 10 11 11
8 7 7 6 5 5 5 6 6 5 6 6 6 7 7 7 7 7 7 7 7 7 7 7 7 7 7 7 7 7 8 8 8 8 9 9 10 10 11 11 11 12 12
8 8 8 6 5 6 6 6 6 6 6 7 7 7 7 7 7 7 8 8 7 7 7 7 7 6 7 8 8 9 9 9 9 9 10 10 10 10 11 11 11 12 12
9 8 8 7 6 6 6 7 7 7 7 7 7 7 7 7 7 7 8 8 8 7 7 7 6 6 7 8 9 9 9 9 9 10 11 11 11 11 11 11 11 11 11
9 9 9 7 7 7 7 8 8 7 7 7 7 7 8 8 7 7 7 7 7 7 6 6 7 7 8 8 9 9 10 10 10 11 11 12 12 12 12 12 12 12 11
9 10 9 9 8 8 8 8 8 8 9 8 8 8 9 9 8 8 8 8 8 7 6 7 8 8 9 9 9 10 10 10 11 11 11 11 12 12 11 11 12 12 12
10 10 10 10 9 9 9 9 9 9 8 8 9 9 9 9 9 8 8 9 9 8 7 7 8 9 10 11 11 11 11 11 11 11 12 12 12 13 12 11 12 12 12
10 10 11 11 10 10 10 10 10 10 9 9 9 9 10 10 10 9 9 9 8 8 8 9 10 10 10 11 11 12 12 12 12 12 12 13 13 13 14 13 12 13 13
11 11 11 11 10 10 10 10 11 11 10 10 10 9 9 10 9 9 10 10 10 10 10 10 11 11 11 11 11 12 13 13 13 13 13 13 13 13 13 14 13 13 14
11 11 10 10 10 10 10 10 11 11 11 10 10 10 10 10 10 10 10 10 10 11 11 11 12 12 12 12 12 13 13 13 13 13 13 14 14 14 14 14 15 15 15
12 11 10 11 10 10 10 11 11 11 12 11 11 11 10 10 10 11 11 11 11 11 11 11 12 12 13 13 13 14 15 14 14 14 15 15 16 16 15 15 16 16 16
11 11 11 11 11 10 10 11 11 12 12 12 12 12 11 10 11 11 12 12 12 12 12 13 13 13 14 14 14 14 15 15 15 15 16 16 17 17 17 17 18 17 17
12 11 12 12 11 11 11 11 12 12 12 12 13 13 13 12 13 13 13 14 14 14 14 13 14 14 14 14 14 15 15 16 17 17 17 17 17 18 18 19 19 19 18
12 13 13 12 12 12 12 12 12 13 13 13 14 14 14 15 15 15 16 16 16 16 15 15 15 15 15 15 15 15 16 17 17 18 19 20 20 19 19 20 20 20 19
14 14 14 13 13 13 13 13 13 14 14 14 15 15 16 16 17 16 16 16 17 17 16 16 16 16 16 17 17 17 18 18 18 19 19 20 21 21 21 21 21 21 21
15 15 15 14 14 14 14 14 14 14 15 15 16 16 17 18 18 18 17 18 18 18 18 17 17 18 18 18 18 19 19 19 19 19 20 20 21 22 23 22 22 23 23
17 17 16 16 16 16 16 15 15 15 15 16 16 17 17 18 19 19 19 19 20 20 19 19 19 19 19 20 20 20 20 21 21 21 22 22 22 22 22 22 22 23 24
18 18 18 18 18 17 17 17 17 17 17 18 18 19 19 19 20 20 21 21 21 21 21 20 20 20 21 21 21 22 22 22 23 23 23 24 23 23 23 24 24 24 24
20 21 21 20 20 19 19 19 19 19 19 20 20 21 21 21 21 21 22 22 22 22 22 22 23 23 23 23 23 23 23 23 24 24 25 25 25 25 25 26 25 25 25
21 21 21 21 20 20 20 20 19 20 21 22 22 22 22 22 23 22 22 22 23 24 24 24 25 25 25 25 25 25 25 25 25 26 26 26 26 26 26 26 26 26 26
21 21 21 21 21 21 21 21 22 22 21 22 22 22 23 23 24 24 24 23 23 24 25 26 26 26 26 26 26 26 26 26 26 26 26 25 25 26 26 26 26 27 27
23 22 22 22 22 22 22 22 23 24 24 23 23 23 24 24 24 25 24 24 24 25 26 27 26 26 27 27 27 26 26 26 26 26 27 27 26 26 27 27 28 28 27
24 23 23 23 23 23 23 23 25 25 25 24 24 24 24 25 25 25 25 25 25 26 26 27 27 27 27 27 27 27 27 27 27 27 27 28 28 27 27 27 28 28 28
Wind_Direction
333 330 316 304 296 290 294 292 293 300 303 303 299 296 291 285 284 278 267 264 264 267 265 258 255 258 260 255 259 254 248 249 252 254 257 258 261 264 266 268 271 270 269
330 327 321 305 291 283 278 282 290 296 299 300 297 297 297 289 280 279 278 272 268 262 258 256 252 253 257 260 259 254 252 254 255 258 261 263 264 266 266 265 266 268 268
323 321 321 313 296 281 277 281 285 289 292 298 297 294 295 288 288 288 278 270 268 264 261 260 261 259 255 255 259 264 265 260 257 260 260 262 263 264 264 266 265 266 266
328 322 319 316 300 283 280 285 284 286 286 291 293 290 284 283 291 290 278 269 267 264 259 261 264 261 254 251 258 264 265 266 266 262 261 260 260 262 263 264 265 267 267
329 323 317 311 302 288 282 282 283 287 287 287 292 288 283 280 288 290 281 272 275 271 269 265 259 255 253 251 258 261 262 263 268 267 266 266 263 265 266 266 266 269 269
326 324 318 307 298 288 283 282 284 284 284 285 288 289 293 291 287 285 281 278 276 271 272 268 257 254 257 258 258 261 262 263 265 265 266 269 267 269 270 268 267 269 270
326 321 317 313 305 296 290 288 289 285 282 278 282 287 292 290 290 289 286 278 270 271 271 267 267 265 264 263 262 263 262 263 264 264 264 264 264 269 273 272 270 272 271
322 319 313 309 302 295 290 287 286 287 281 277 281 281 284 285 283 289 290 281 271 273 271 274 273 270 267 266 266 267 265 264 265 267 265 261 262 264 268 272 272 271 273
316 317 311 304 301 293 286 286 282 287 283 275 275 277 276 275 274 283 287 281 276 272 272 272 271 267 267 269 270 270 269 265 265 268 267 266 266 265 267 270 270 268 271
307 311 311 305 296 290 286 284 281 282 281 275 269 272 275 275 277 279 281 280 277 277 275 277 276 272 271 272 271 272 271 269 270 270 269 268 266 264 265 268 268 269 270
303 305 306 303 295 291 286 281 279 278 277 276 276 277 276 276 275 272 277 279 279 279 276 278 280 279 276 272 271 271 273 272 271 272 269 266 264 265 263 265 267 268 270
307 307 303 298 294 291 286 281 278 275 276 276 277 278 278 276 272 271 275 278 277 277 279 282 282 282 279 275 274 273 273 270 271 272 270 268 264 265 267 268 268 270 270
305 304 304 299 297 290 283 280 279 276 273 273 274 278 278 276 271 275 277 279 279 278 279 280 280 278 278 280 280 278 277 275 273 273 272 271 269 268 271 272 274 273 273
303 296 295 295 293 291 283 279 277 277 274 271 270 274 277 277 276 278 280 282 282 280 280 281 282 280 281 280 280 279 277 275 276 274 273 272 269 268 272 274 275 275 274
300 299 292 292 291 290 288 283 278 278 273 269 268 270 272 274 275 276 280 283 282 279 280 285 286 286 286 283 283 282 279 275 275 275 273 272 272 270 272 273 274 275 275
295 299 297 291 290 288 288 283 279 277 275 271 267 267 269 271 274 278 281 283 282 280 281 283 286 285 285 285 285 283 282 278 274 274 274 274 275 273 273 273 272 273 273
291 295 296 293 289 288 287 286 283 280 278 274 270 268 268 269 272 277 280 282 283 282 281 281 282 282 283 283 283 284 283 281 278 276 276 275 274 274 273 271 271 272 272
285 289 291 289 287 287 287 284 283 278 276 276 273 272 272 272 273 278 280 281 281 282 281 282 282 281 282 282 282 282 283 282 280 277 274 274 273 273 272 271 270 269 270
280 283 286 285 286 286 286 284 282 281 278 276 275 275 276 275 275 278 280 280 279 278 279 279 281 282 282 283 283 283 284 283 281 279 277 275 273 273 273 272 271 269 271
275 278 280 282 284 283 282 282 282 282 280 278 278 278 277 276 277 278 279 279 278 278 279 279 279 282 284 284 284 284 283 283 282 281 279 277 276 275 274 272 272 272 272
271 275 278 280 281 280 278 279 279 280 278 279 280 280 279 277 277 277 277 277 277 277 277 279 280 282 283 283 284 284 284 283 283 281 280 278 277 276 275 274 272 272 272
269 274 276 276 277 279 277 279 279 278 278 280 280 279 278 277 276 277 277 276 275 276 277 279 280 281 282 282 283 284 283 282 283 282 281 278 276 275 274 275 273 271 271
269 272 273 274 276 278 278 278 280 280 279 279 279 278 278 277 277 278 278 277 275 274 277 279 281 282 282 282 282 283 282 283 283 283 282 279 277 275 274 273 273 273 272
268 270 270 272 275 277 278 279 280 282 283 281 280 280 279 277 278 277 278 279 279 278 278 280 281 282 282 282 282 282 281 282 282 282 281 279 278 275 273 272 272 273 273
267 269 272 272 274 275 277 279 280 282 284 284 283 282 283 281 282 281 279 279 281 281 279 279 282 281 281 281 280 281 281 280 281 282 281 279 279 277 274 274 273 273 272
264 266 269 271 273 275 278 278 278 281 283 284 284 283 282 280 281 282 282 282 282 281 280 280 281 281 280 280 281 280 280 280 280 281 281 281 279 277 275 274 274 273 272
Height
5879 5878 5877 5876 5875 5874 5874 5874 5873 5873 5873 5872 5872 5872 5871 5871 5871 5870 5870 5870 5870 5870 5870 5870 5870 5870 5871 5871 5871 5871 5871 5871 5871 5872 5872 5872 5872 5872 5872 5872 5872 5871 5871
5878 5877 5876 5875 5874 5873 5873 5873 5873 5872 5872 5871 5871 5870 5870 5870 5869 5869 5869 5869 5869 5868 5869 5869 5868 5868 5868 5869 5869 5869 5869 5869 5869 5870 5870 5870 5870 5870 5870 5870 5870 5870 5869
5877 5876 5875 5873 5872 5872 5872 5871 5871 5871 5871 5870 5870 5869 5869 5868 5868 5868 5867 5867 5867 5867 5867 5867 5867 5867 5867 5867 5867 5867 5867 5867 5867 5867 5867 5868 5868 5868 5868 5867 5867 5867 5867
5875 5874 5873 5872 5871 5870 5870 5870 5870 5870 5869 5869 5869 5868 5868 5867 5867 5866 5866 5865 5865 5865 5865 5865 5865 5865 5865 5866 5865 5865 5865 5865 5865 5865 5865 5865 5865 5865 5865 5865 5865 5865 5864
5874 5873 5872 5871 5870 5869 5869 5869 5869 5868 5868 5868 5867 5867 5866 5866 5865 5864 5864 5864 5863 5863 5863 5863 5863 5863 5863 5864 5864 5864 5863 5863 5863 5863 5863 5863 5863 5863 5863 5862 5862 5862 5861
5872 5871 5870 5869 5869 5868 5868 5867 5867 5867 5866 5866 5866 5866 5865 5864 5863 5863 5862 5862 5861 5861 5861 5861 5861 5861 5861 5861 5861 5861 5861 5861 5861 5860 5860 5860 5860 5860 5860 5859 5859 5859 5858
5871 5870 5869 5868 5867 5867 5866 5866 5865 5865 5865 5864 5864 5864 5863 5863 5862 5861 5861 5860 5860 5859 5859 5859 5859 5859 5859 5859 5859 5859 5859 5858 5858 5858 5858 5858 5858 5857 5857 5856 5856 5856 5855
5869 5868 5867 5866 5866 5865 5865 5864 5863 5863 5863 5862 5862 5862 5862 5862 5860 5859 5859 5858 5858 5857 5857 5858 5858 5857 5857 5857 5856 5856 5856 5856 5855 5855 5855 5855 5855 5854 5854 5854 5853 5853 5853
5867 5866 5865 5864 5864 5863 5863 5862 5861 5861 5861 5860 5860 5860 5860 5860 5859 5858 5857 5857 5856 5855 5856 5856 5855 5855 5854 5854 5854 5853 5853 5853 5852 5852 5852 5852 5851 5851 5851 5850 5850 5850 5849
5865 5864 5863 5862 5861 5861 5860 5860 5859 5859 5859 5858 5858 5858 5857 5857 5857 5856 5856 5855 5854 5854 5853 5853 5853 5852 5852 5851 5851 5850 5850 5850 5849 5849 5848 5848 5848 5848 5847 5847 5847 5846 5846
5862 5861 5860 5860 5859 5858 5858 5857 5857 5857 5856 5856 5856 5855 5855 5854 5854 5854 5854 5853 5852 5852 5851 5851 5850 5849 5848 5848 5848 5847 5847 5846 5846 5846 5845 5845 5844 5844 5844 5844 5843 5843 5843
5859 5859 5857 5857 5856 5855 5855 5854 5854 5854 5854 5854 5853 5853 5852 5852 5851 5851 5851 5851 5850 5850 5849 5848 5847 5846 5845 5845 5844 5844 5843 5843 5842 5842 5841 5841 5841 5840 5840 5840 5840 5839 5839
5856 5856 5855 5854 5853 5853 5852 5852 5851 5851 5851 5851 5850 5850 5849 5849 5848 5848 5848 5848 5847 5847 5846 5845 5844 5843 5842 5841 5840 5840 5839 5839 5838 5838 5837 5837 5837 5837 5836 5836 5836 5835 5835
5853 5852 5852 5851 5850 5850 5849 5849 5848 5848 5848 5848 5847 5847 5847 5846 5846 5845 5845 5844 5844 5844 5843 5842 5840 5839 5839 5838 5837 5836 5835 5835 5834 5834 5833 5833 5833 5833 5832 5832 5832 5831 5830
5850 5849 5849 5848 5848 5847 5846 5846 5845 5845 5844 5844 5844 5844 5844 5843 5843 5842 5842 5841 5841 5840 5839 5838 5837 5836 5835 5834 5833 5832 5831 5831 5830 5829 5829 5828 5828 5828 5828 5827 5827 5826 5826
5847 5846 5845 5845 5845 5844 5843 5843 5842 5841 5841 5841 5840 5840 5840 5840 5839 5839 5838 5838 5837 5836 5835 5835 5833 5832 5831 5830 5829 5828 5827 5826 5825 5825 5824 5823 5823 5823 5822 5822 5822 5822 5821
5843 5842 5842 5841 5841 5840 5840 5839 5838 5837 5837 5837 5836 5836 5836 5836 5836 5835 5834 5833 5833 5832 5831 5830 5829 5828 5827 5825 5824 5823 5822 5821 5820 5819 5818 5818 5818 5817 5817 5816 5816 5816 5815
5839 5839 5838 5837 5837 5836 5836 5835 5834 5833 5833 5833 5832 5832 5832 5832 5831 5831 5830 5829 5828 5827 5826 5825 5824 5823 5822 5821 5819 5818 5816 5815 5814 5813 5813 5812 5812 5811 5811 5810 5810 5810 5809
5835 5835 5834 5833 5833 5832 5831 5831 5830 5829 5829 5828 5828 5828 5827 5827 5826 5826 5825 5824 5823 5822 5821 5820 5819 5818 5816 5815 5813 5812 5811 5810 5808 5808 5807 5806 5806 5805 5804 5804 5804 5803 5803
5830 5830 5829 5829 5828 5827 5827 5826 5825 5825 5824 5824 5823 5823 5822 5821 5821 5820 5820 5818 5817 5817 5815 5814 5813 5812 5810 5809 5807 5806 5805 5804 5803 5802 5801 5800 5799 5798 5798 5797 5797 5796 5796
5825 5825 5824 5823 5823 5822 5822 5821 5820 5820 5819 5819 5818 5817 5817 5816 5815 5814 5814 5813 5812 5811 5810 5808 5807 5806 5804 5802 5801 5800 5798 5797 5796 5795 5794 5793 5792 5791 5791 5790 5790 5789 5789
5819 5819 5819 5817 5817 5816 5816 5816 5815 5814 5813 5813 5812 5811 5810 5810 5809 5808 5807 5806 5805 5804 5803 5802 5801 5799 5798 5796 5794 5793 5791 5790 5789 5788 5786 5785 5784 5784 5783 5783 5782 5782 5781
5813 5813 5812 5811 5810 5810 5810 5809 5809 5808 5807 5806 5805 5805 5804 5803 5802 5801 5800 5799 5798 5797 5796 5795 5794 5792 5791 5789 5788 5786 5784 5783 5781 5780 5779 5778 5776 5776 5775 5774 5774 5774 5773
5807 5807 5806 5805 5805 5804 5804 5803 5802 5801 5800 5799 5798 5798 5797 5796 5795 5794 5792 5791 5790 5789 5788 5787 5786 5784 5782 5781 5779 5778 5777 5775 5774 5772 5771 5770 5769 5768 5767 5766 5766 5765 5765
5800 5800 5799 5799 5798 5798 5797 5797 5796 5795 5793 5793 5791 5790 5789 5788 5787 5786 5785 5784 5783 5781 5780 5778 5777 5776 5774 5773 5771 5770 5769 5768 5766 5765 5763 5763 5761 5760 5759 5758 5757 5757 5756
5792 5792 5792 5792 5791 5791 5790 5789 5789 5788 5786 5785 5784 5783 5782 5781 5780 5778 5777 5776 5775 5774 5772 5770 5769 5768 5766 5765 5763 5762 5761 5760 5758 5757 5756 5754 5753 5752 5751 5750 5749 5748 5748